DW1590 Weather Reports


Display with metric or nautical units.
time (UTC)temp
F
wind
direction
speed
MPH
gust
MPH
rain 1hr
in
rain 24hr
in
rain mn
in
humidity
%
barometer
mb
20260504081501 47 225 0.0 0.0 0.00 0.00 0.00 17 1014.9
20260504050005 44 226 1.0 0.0 0.00 0.00 0.00 100 1015.2
20260504044501 44 225 0.0 0.0 0.00 0.00 0.00 100 1015.1
20260504043101 44 225 2.0 0.0 0.00 0.00 0.00 100 1015.2
20260504041552 44 232 1.0 0.0 0.00 0.00 0.00 100 1015.0
20260504040048 43 248 0.0 0.0 0.00 0.00 0.00 100 1015.1
20260504034549 43 248 0.0 0.0 0.00 0.00 0.00 1 1015.1
20260504033043 44 248 0.0 0.0 0.00 0.00 0.00 10 1014.8
20260504031542 44 248 0.0 0.0 0.00 0.00 0.00 19 1014.8
20260504030039 45 248 0.0 0.0 0.00 0.00 0.00 37 1014.6
20260504024529 45 248 0.0 0.0 0.00 0.00 0.00 45 1014.5
20260504023028 46 248 0.0 0.0 0.00 0.00 0.00 52 1014.6
20260504021528 46 248 0.0 0.0 0.00 0.00 0.00 59 1014.5
20260504020030 47 248 0.0 0.0 0.00 0.00 0.00 62 1014.5
20260504014527 47 248 0.0 0.0 0.00 0.00 0.00 63 1014.3
20260504013027 48 248 0.0 0.0 0.00 0.00 0.00 64 1014.2
20260504011527 49 248 0.0 0.0 0.00 0.00 0.00 63 1014.0
20260504010026 49 248 0.0 0.0 0.00 0.00 0.00 62 1014.1
20260504004528 51 248 0.0 0.0 0.00 0.00 0.00 59 1013.8
20260504003024 52 248 0.0 0.0 0.00 0.00 0.00 57 1013.9
20260504001525 53 248 0.0 0.0 0.00 0.00 0.00 54 1013.6
20260504000024 56 248 0.0 0.0 0.00 0.00 0.00 49 1013.5
20260503234526 58 248 1.0 0.0 0.00 0.00 0.00 45 1013.4
20260503233024 59 246 0.0 0.0 0.00 0.00 0.00 41 1013.3
20260503231526 60 236 1.0 0.0 0.00 0.00 0.00 38 1013.1
20260503230023 60 239 1.0 0.0 0.00 0.00 0.00 37 1013.1
20260503224521 61 250 4.0 0.0 0.00 0.00 0.00 35 1013.2
20260503223024 62 250 3.0 0.0 0.00 0.00 0.00 37 1013.2
20260503221521 62 306 4.0 0.0 0.00 0.00 0.00 35 1013.1
20260503220027 63 212 5.0 0.0 0.00 0.00 0.00 36 1013.2
20260503214519 62 227 6.0 0.0 0.00 0.00 0.00 34 1013.3
20260503213019 62 278 6.0 0.0 0.00 0.00 0.00 33 1013.2
20260503211522 63 215 5.0 0.0 0.00 0.00 0.00 33 1013.1
20260503210019 63 287 4.0 0.0 0.00 0.00 0.00 33 1013.3
20260503204516 62 324 6.0 0.0 0.00 0.00 0.00 36 1013.2
20260503203021 62 323 7.0 0.0 0.00 0.00 0.00 35 1013.4
20260503201512 61 304 7.0 0.0 0.00 0.00 0.00 36 1013.6
20260503200012 61 219 6.0 0.0 0.00 0.00 0.00 36 1013.9
20260503194516 61 312 7.0 0.0 0.00 0.00 0.00 39 1014.1
20260503193009 61 309 8.0 0.0 0.00 0.00 0.00 38 1014.2
20260503191507 60 271 8.0 0.0 0.00 0.00 0.00 39 1014.5
20260503190007 60 246 5.0 0.0 0.00 0.00 0.00 40 1014.6
20260503184504 59 242 9.0 0.0 0.00 0.00 0.00 40 1014.8
20260503183001 59 351 7.0 0.0 0.00 0.00 0.00 42 1015.0
20260503181559 58 213 10.0 0.0 0.00 0.00 0.00 42 1015.0
20260503180057 57 325 8.0 0.0 0.00 0.00 0.00 40 1015.1
20260503174610 57 284 6.0 0.0 0.00 0.00 0.00 43 1015.3
20260503173123 56 271 7.0 0.0 0.00 0.00 0.00 42 1015.5
20260503171552 56 297 8.0 0.0 0.00 0.00 0.00 44 1015.4